QPF
0.00 0.00 0.00 0.00 0.00 0.00 0.00 0.00 0.00 0.01 0.00 0.00 0.00 0.00 0.01 0.01 0.01 0.01 0.01 0.01 0.01 0.02 0.02 0.02 0.02 0.01 0.01 0.01 0.02 0.01 0.02 0.02 0.03 0.02 0.03 0.02 0.02 0.02 0.03 0.03 0.03 0.03 0.02 0.02
0.00 0.00 0.00 0.00 0.00 0.00 0.00 0.00 0.00 0.00 0.00 0.00 0.00 0.00 0.00 0.00 0.00 0.00 0.01 0.01 0.01 0.02 0.02 0.02 0.03 0.02 0.01 0.01 0.02 0.01 0.01 0.02 0.02 0.02 0.02 0.03 0.02 0.02 0.03 0.05 0.05 0.03 0.02 0.02
0.00 0.00 0.00 0.00 0.00 0.00 0.00 0.00 0.00 0.00 0.00 0.00 0.00 0.00 0.00 0.00 0.00 0.00 0.00 0.01 0.01 0.01 0.01 0.01 0.02 0.02 0.02 0.01 0.02 0.01 0.01 0.01 0.02 0.02 0.02 0.02 0.02 0.02 0.03 0.05 0.05 0.04 0.02 0.02
0.00 0.00 0.00 0.00 0.00 0.00 0.00 0.00 0.00 0.00 0.00 0.00 0.00 0.00 0.00 0.00 0.00 0.00 0.00 0.00 0.00 0.00 0.00 0.00 0.00 0.01 0.01 0.01 0.01 0.02 0.01 0.01 0.02 0.02 0.03 0.02 0.02 0.02 0.03 0.03 0.02 0.03 0.02 0.02
0.00 0.01 0.01 0.00 0.00 0.00 0.00 0.00 0.00 0.00 0.00 0.01 0.00 0.00 0.00 0.00 0.00 0.00 0.00 0.00 0.00 0.00 0.00 0.00 0.00 0.00 0.01 0.01 0.01 0.01 0.01 0.01 0.02 0.02 0.02 0.02 0.02 0.02 0.02 0.02 0.02 0.03 0.02 0.02
0.00 0.00 0.01 0.00 0.00 0.00 0.00 0.01 0.01 0.01 0.01 0.01 0.00 0.00 0.00 0.00 0.00 0.00 0.00 0.00 0.00 0.01 0.01 0.00 0.01 0.01 0.02 0.02 0.01 0.01 0.02 0.01 0.01 0.01 0.02 0.02 0.02 0.02 0.02 0.03 0.03 0.03 0.03 0.03
0.01 0.00 0.00 0.00 0.00 0.00 0.00 0.01 0.02 0.02 0.02 0.01 0.00 0.00 0.00 0.00 0.00 0.00 0.00 0.00 0.00 0.01 0.01 0.01 0.01 0.01 0.01 0.01 0.01 0.01 0.01 0.02 0.02 0.01 0.02 0.02 0.03 0.03 0.03 0.03 0.03 0.03 0.04 0.03
0.00 0.01 0.00 0.00 0.00 0.00 0.00 0.01 0.01 0.01 0.01 0.01 0.01 0.01 0.00 0.00 0.00 0.00 0.00 0.00 0.00 0.00 0.00 0.01 0.01 0.01 0.01 0.00 0.00 0.00 0.01 0.02 0.02 0.02 0.02 0.03 0.03 0.02 0.02 0.03 0.02 0.03 0.03 0.03
0.00 0.00 0.00 0.00 0.00 0.00 0.01 0.01 0.01 0.01 0.00 0.00 0.00 0.00 0.00 0.00 0.00 0.00 0.00 0.00 0.00 0.00 0.00 0.00 0.01 0.01 0.01 0.00 0.00 0.00 0.01 0.02 0.03 0.05 0.05 0.03 0.02 0.02 0.03 0.03 0.03 0.02 0.02 0.02
0.00 0.00 0.00 0.00 0.00 0.00 0.00 0.01 0.02 0.01 0.01 0.01 0.00 0.00 0.00 0.00 0.00 0.00 0.00 0.00 0.00 0.00 0.00 0.00 0.00 0.00 0.01 0.01 0.01 0.01 0.02 0.03 0.03 0.06 0.07 0.04 0.03 0.02 0.02 0.02 0.03 0.02 0.01 0.01
0.00 0.00 0.00 0.00 0.00 0.00 0.00 0.01 0.01 0.01 0.02 0.01 0.01 0.00 0.00 0.00 0.00 0.00 0.00 0.00 0.00 0.00 0.00 0.00 0.00 0.00 0.00 0.01 0.01 0.02 0.03 0.03 0.04 0.04 0.04 0.04 0.03 0.02 0.02 0.02 0.02 0.02 0.02 0.02
0.00 0.00 0.00 0.00 0.00 0.00 0.00 0.00 0.01 0.01 0.01 0.01 0.01 0.00 0.00 0.00 0.00 0.00 0.00 0.00 0.00 0.00 0.00 0.00 0.00 0.00 0.00 0.00 0.01 0.01 0.02 0.02 0.02 0.01 0.01 0.02 0.02 0.02 0.03 0.02 0.02 0.02 0.03 0.02
0.00 0.00 0.00 0.00 0.00 0.00 0.00 0.00 0.00 0.01 0.01 0.01 0.00 0.00 0.00 0.00 0.00 0.00 0.00 0.00 0.00 0.00 0.00 0.00 0.00 0.00 0.00 0.00 0.01 0.02 0.02 0.01 0.01 0.01 0.01 0.01 0.01 0.01 0.01 0.02 0.02 0.02 0.03 0.02
0.00 0.00 0.00 0.00 0.00 0.00 0.00 0.00 0.00 0.00 0.00 0.00 0.00 0.00 0.00 0.00 0.00 0.00 0.00 0.00 0.00 0.00 0.00 0.00 0.00 0.00 0.01 0.01 0.01 0.02 0.02 0.01 0.01 0.01 0.02 0.02 0.03 0.03 0.03 0.02 0.02 0.02 0.02 0.02
0.00 0.00 0.00 0.00 0.00 0.00 0.00 0.00 0.00 0.00 0.00 0.00 0.00 0.00 0.00 0.00 0.00 0.00 0.00 0.00 0.00 0.00 0.00 0.00 0.00 0.01 0.01 0.01 0.01 0.01 0.01 0.01 0.01 0.02 0.03 0.05 0.06 0.06 0.04 0.03 0.02 0.02 0.02 0.02
0.00 0.00 0.00 0.00 0.00 0.00 0.00 0.00 0.00 0.00 0.00 0.00 0.00 0.00 0.00 0.00 0.00 0.00 0.00 0.00 0.00 0.00 0.00 0.01 0.01 0.01 0.02 0.02 0.01 0.01 0.01 0.01 0.01 0.02 0.02 0.03 0.04 0.03 0.03 0.03 0.03 0.03 0.03 0.03
0.00 0.00 0.00 0.00 0.00 0.00 0.00 0.00 0.00 0.00 0.00 0.00 0.00 0.00 0.00 0.00 0.00 0.00 0.00 0.00 0.00 0.00 0.01 0.02 0.01 0.01 0.01 0.01 0.01 0.01 0.01 0.01 0.01 0.01 0.02 0.04 0.04 0.04 0.03 0.03 0.04 0.04 0.04 0.03
0.00 0.00 0.00 0.00 0.00 0.00 0.00 0.00 0.00 0.00 0.00 0.00 0.00 0.00 0.00 0.00 0.00 0.00 0.00 0.00 0.01 0.01 0.01 0.02 0.01 0.01 0.01 0.00 0.00 0.01 0.01 0.01 0.01 0.02 0.03 0.04 0.03 0.03 0.03 0.03 0.03 0.04 0.04 0.04
0.00 0.00 0.00 0.00 0.01 0.01 0.01 0.00 0.00 0.00 0.00 0.00 0.00 0.00 0.00 0.00 0.00 0.00 0.00 0.00 0.00 0.01 0.01 0.01 0.01 0.01 0.00 0.01 0.00 0.00 0.01 0.01 0.02 0.02 0.02 0.02 0.02 0.02 0.02 0.02 0.02 0.01 0.02 0.03
0.00 0.00 0.00 0.00 0.00 0.01 0.00 0.00 0.00 0.00 0.00 0.00 0.00 0.00 0.00 0.00 0.00 0.00 0.01 0.01 0.01 0.01 0.01 0.01 0.01 0.01 0.01 0.01 0.01 0.01 0.01 0.01 0.02 0.02 0.01 0.01 0.02 0.02 0.02 0.02 0.02 0.01 0.01 0.02
0.00 0.00 0.00 0.00 0.01 0.00 0.00 0.00 0.01 0.01 0.01 0.00 0.00 0.00 0.00 0.00 0.00 0.01 0.01 0.01 0.01 0.00 0.00 0.01 0.01 0.01 0.01 0.01 0.02 0.02 0.02 0.02 0.01 0.02 0.02 0.02 0.02 0.02 0.03 0.03 0.03 0.02 0.01 0.02
0.00 0.00 0.01 0.01 0.00 0.00 0.00 0.00 0.01 0.01 0.01 0.00 0.00 0.00 0.00 0.00 0.00 0.01 0.02 0.01 0.01 0.00 0.01 0.01 0.01 0.01 0.01 0.02 0.02 0.02 0.02 0.02 0.01 0.01 0.02 0.02 0.03 0.03 0.04 0.04 0.03 0.02 0.02 0.02
0.01 0.01 0.01 0.00 0.00 0.00 0.00 0.00 0.01 0.01 0.00 0.00 0.00 0.00 0.00 0.00 0.01 0.01 0.02 0.01 0.01 0.01 0.01 0.01 0.02 0.02 0.02 0.02 0.02 0.02 0.01 0.01 0.01 0.01 0.01 0.02 0.02 0.02 0.02 0.03 0.02 0.02 0.02 0.03
0.01 0.00 0.01 0.01 0.00 0.00 0.00 0.00 0.00 0.00 0.00 0.00 0.00 0.00 0.00 0.01 0.00 0.01 0.01 0.02 0.01 0.01 0.01 0.02 0.02 0.02 0.03 0.03 0.02 0.02 0.02 0.02 0.02 0.01 0.01 0.01 0.01 0.01 0.01 0.02 0.02 0.02 0.02 0.02
0.01 0.01 0.01 0.01 0.01 0.00 0.00 0.00 0.00 0.00 0.00 0.00 0.00 0.00 0.00 0.01 0.00 0.00 0.01 0.01 0.01 0.02 0.02 0.02 0.03 0.03 0.03 0.03 0.04 0.05 0.04 0.03 0.02 0.01 0.01 0.01 0.01 0.01 0.01 0.01 0.02 0.03 0.03 0.03
0.01 0.01 0.01 0.01 0.01 0.00 0.00 0.00 0.00 0.00 0.00 0.00 0.00 0.00 0.00 0.01 0.01 0.01 0.01 0.01 0.01 0.02 0.01 0.02 0.03 0.03 0.03 0.04 0.04 0.03 0.02 0.01 0.02 0.02 0.01 0.01 0.01 0.01 0.01 0.02 0.03 0.05 0.05 0.05
MSLP
1009.31 1009.93 1010.43 1010.80 1011.07 1011.28 1011.45 1011.61 1011.76 1011.88 1011.95 1011.94 1011.84 1011.67 1011.46 1011.26 1011.10 1011.04 1011.08 1011.22 1011.45 1011.71 1011.95 1012.15 1012.28 1012.35 1012.37 1012.37 1012.40 1012.48 1012.61 1012.80 1013.02 1013.25 1013.45 1013.61 1013.73 1013.81 1013.86 1013.92 1014.01 1014.14 1014.30 1014.49
1009.94 1010.43 1010.77 1010.99 1011.13 1011.24 1011.36 1011.51 1011.67 1011.83 1011.92 1011.93 1011.83 1011.62 1011.35 1011.07 1010.83 1010.68 1010.66 1010.77 1010.99 1011.28 1011.57 1011.85 1012.06 1012.21 1012.32 1012.41 1012.52 1012.67 1012.88 1013.15 1013.44 1013.72 1013.98 1014.17 1014.29 1014.36 1014.38 1014.38 1014.40 1014.45 1014.55 1014.67
1010.41 1010.74 1010.92 1011.00 1011.03 1011.08 1011.19 1011.36 1011.57 1011.78 1011.93 1011.97 1011.87 1011.63 1011.30 1010.93 1010.60 1010.36 1010.27 1010.33 1010.53 1010.82 1011.15 1011.48 1011.76 1011.98 1012.16 1012.33 1012.52 1012.75 1013.05 1013.40 1013.78 1014.15 1014.47 1014.71 1014.87 1014.93 1014.93 1014.89 1014.85 1014.83 1014.86 1014.92
1010.69 1010.86 1010.90 1010.87 1010.84 1010.88 1011.01 1011.25 1011.54 1011.84 1012.05 1012.13 1012.03 1011.76 1011.37 1010.91 1010.49 1010.16 1009.99 1010.00 1010.17 1010.45 1010.80 1011.15 1011.47 1011.74 1011.97 1012.19 1012.43 1012.73 1013.09 1013.52 1013.98 1014.43 1014.83 1015.14 1015.34 1015.43 1015.42 1015.36 1015.29 1015.23 1015.22 1015.25
1010.76 1010.81 1010.75 1010.66 1010.62 1010.69 1010.90 1011.23 1011.64 1012.03 1012.31 1012.43 1012.34 1012.04 1011.58 1011.05 1010.53 1010.13 1009.89 1009.85 1009.99 1010.26 1010.61 1010.97 1011.31 1011.59 1011.83 1012.07 1012.33 1012.65 1013.05 1013.53 1014.04 1014.56 1015.03 1015.41 1015.66 1015.79 1015.81 1015.76 1015.69 1015.62 1015.60 1015.62
1010.64 1010.60 1010.49 1010.40 1010.40 1010.55 1010.86 1011.32 1011.84 1012.33 1012.69 1012.84 1012.75 1012.42 1011.91 1011.31 1010.73 1010.27 1009.99 1009.92 1010.04 1010.31 1010.65 1011.02 1011.34 1011.62 1011.84 1012.05 1012.29 1012.59 1012.98 1013.46 1014.00 1014.56 1015.08 1015.51 1015.82 1016.00 1016.07 1016.05 1016.01 1015.97 1015.96 1016.00
1010.36 1010.27 1010.16 1010.11 1010.19 1010.45 1010.89 1011.48 1012.11 1012.68 1013.09 1013.27 1013.17 1012.81 1012.27 1011.63 1011.02 1010.54 1010.24 1010.17 1010.30 1010.58 1010.94 1011.30 1011.61 1011.86 1012.04 1012.20 1012.38 1012.62 1012.97 1013.41 1013.93 1014.49 1015.03 1015.50 1015.86 1016.09 1016.21 1016.26 1016.26 1016.26 1016.29 1016.37
1009.96 1009.87 1009.79 1009.81 1010.00 1010.38 1010.94 1011.62 1012.34 1012.97 1013.41 1013.60 1013.49 1013.12 1012.56 1011.91 1011.31 1010.84 1010.57 1010.54 1010.70 1011.01 1011.40 1011.77 1012.08 1012.29 1012.43 1012.52 1012.62 1012.78 1013.05 1013.43 1013.90 1014.43 1014.96 1015.44 1015.84 1016.12 1016.30 1016.41 1016.46 1016.52 1016.60 1016.71
1009.53 1009.45 1009.43 1009.53 1009.81 1010.29 1010.94 1011.70 1012.45 1013.11 1013.55 1013.72 1013.59 1013.22 1012.66 1012.05 1011.48 1011.07 1010.87 1010.90 1011.14 1011.51 1011.93 1012.33 1012.64 1012.84 1012.93 1012.97 1012.99 1013.07 1013.25 1013.55 1013.95 1014.43 1014.94 1015.42 1015.83 1016.16 1016.39 1016.54 1016.66 1016.76 1016.88 1017.02
1009.12 1009.08 1009.11 1009.29 1009.64 1010.18 1010.87 1011.64 1012.39 1013.01 1013.42 1013.56 1013.42 1013.05 1012.53 1011.96 1011.47 1011.15 1011.04 1011.17 1011.49 1011.93 1012.41 1012.85 1013.18 1013.37 1013.45 1013.45 1013.42 1013.44 1013.54 1013.77 1014.11 1014.53 1015.00 1015.47 1015.89 1016.24 1016.51 1016.71 1016.87 1017.01 1017.16 1017.32
1008.83 1008.82 1008.90 1009.12 1009.51 1010.05 1010.73 1011.45 1012.14 1012.68 1013.02 1013.11 1012.95 1012.59 1012.12 1011.63 1011.24 1011.02 1011.03 1011.25 1011.66 1012.18 1012.72 1013.20 1013.56 1013.77 1013.86 1013.85 1013.81 1013.80 1013.86 1014.04 1014.34 1014.72 1015.16 1015.62 1016.04 1016.41 1016.70 1016.94 1017.13 1017.29 1017.46 1017.63
1008.68 1008.70 1008.82 1009.05 1009.43 1009.94 1010.54 1011.16 1011.73 1012.17 1012.41 1012.44 1012.25 1011.91 1011.49 1011.09 1010.81 1010.70 1010.81 1011.13 1011.61 1012.19 1012.77 1013.29 1013.69 1013.94 1014.06 1014.08 1014.06 1014.06 1014.13 1014.31 1014.58 1014.95 1015.38 1015.82 1016.25 1016.63 1016.95 1017.21 1017.42 1017.61 1017.78 1017.95
1008.71 1008.76 1008.88 1009.10 1009.44 1009.86 1010.35 1010.83 1011.25 1011.55 1011.68 1011.63 1011.42 1011.09 1010.73 1010.42 1010.23 1010.23 1010.42 1010.81 1011.34 1011.95 1012.56 1013.11 1013.53 1013.83 1014.00 1014.08 1014.12 1014.18 1014.29 1014.50 1014.79 1015.17 1015.60 1016.05 1016.48 1016.88 1017.22 1017.50 1017.74 1017.95 1018.14 1018.31
1008.89 1008.95 1009.07 1009.26 1009.52 1009.84 1010.18 1010.50 1010.76 1010.90 1010.91 1010.78 1010.54 1010.23 1009.92 1009.69 1009.59 1009.66 1009.91 1010.34 1010.89 1011.50 1012.11 1012.66 1013.12 1013.45 1013.69 1013.85 1013.98 1014.12 1014.31 1014.57 1014.92 1015.33 1015.78 1016.24 1016.69 1017.11 1017.47 1017.79 1018.06 1018.29 1018.50 1018.69
1009.14 1009.21 1009.32 1009.47 1009.65 1009.85 1010.04 1010.19 1010.28 1010.27 1010.16 1009.95 1009.68 1009.39 1009.13 1008.96 1008.93 1009.05 1009.34 1009.78 1010.31 1010.90 1011.49 1012.04 1012.50 1012.88 1013.17 1013.42 1013.65 1013.89 1014.18 1014.53 1014.93 1015.39 1015.88 1016.37 1016.85 1017.29 1017.69 1018.03 1018.34 1018.61 1018.85 1019.07
1009.37 1009.45 1009.55 1009.66 1009.76 1009.84 1009.89 1009.88 1009.81 1009.66 1009.44 1009.17 1008.88 1008.61 1008.39 1008.28 1008.29 1008.46 1008.76 1009.18 1009.69 1010.24 1010.79 1011.31 1011.78 1012.18 1012.54 1012.87 1013.20 1013.55 1013.94 1014.37 1014.85 1015.37 1015.90 1016.43 1016.93 1017.40 1017.83 1018.22 1018.57 1018.89 1019.18 1019.43
1009.51 1009.59 1009.67 1009.73 1009.76 1009.74 1009.66 1009.52 1009.31 1009.05 1008.75 1008.43 1008.12 1007.87 1007.69 1007.63 1007.69 1007.88 1008.20 1008.60 1009.08 1009.58 1010.10 1010.59 1011.05 1011.48 1011.89 1012.29 1012.71 1013.15 1013.63 1014.15 1014.71 1015.27 1015.85 1016.41 1016.95 1017.45 1017.92 1018.35 1018.75 1019.12 1019.46 1019.76
1009.47 1009.54 1009.60 1009.61 1009.57 1009.47 1009.29 1009.04 1008.73 1008.39 1008.02 1007.67 1007.37 1007.14 1007.01 1007.00 1007.11 1007.34 1007.66 1008.06 1008.51 1008.99 1009.47 1009.94 1010.39 1010.84 1011.29 1011.75 1012.24 1012.77 1013.32 1013.91 1014.52 1015.14 1015.75 1016.34 1016.91 1017.45 1017.97 1018.45 1018.90 1019.31 1019.70 1020.04
1009.27 1009.30 1009.31 1009.27 1009.17 1008.99 1008.73 1008.40 1008.02 1007.62 1007.23 1006.87 1006.59 1006.40 1006.33 1006.38 1006.55 1006.82 1007.17 1007.58 1008.03 1008.49 1008.95 1009.41 1009.87 1010.33 1010.81 1011.31 1011.85 1012.43 1013.04 1013.67 1014.33 1014.98 1015.63 1016.25 1016.86 1017.44 1017.99 1018.52 1019.02 1019.49 1019.92 1020.31
1008.94 1008.90 1008.84 1008.74 1008.57 1008.32 1007.99 1007.61 1007.18 1006.75 1006.35 1006.02 1005.77 1005.65 1005.64 1005.76 1006.00 1006.33 1006.73 1007.17 1007.63 1008.10 1008.56 1009.02 1009.48 1009.96 1010.45 1010.98 1011.55 1012.15 1012.79 1013.46 1014.14 1014.83 1015.50 1016.16 1016.81 1017.43 1018.03 1018.61 1019.16 1019.67 1020.14 1020.56
1008.54 1008.41 1008.26 1008.07 1007.82 1007.51 1007.13 1006.71 1006.26 1005.83 1005.44 1005.15 1004.96 1004.90 1004.97 1005.17 1005.49 1005.89 1006.34 1006.83 1007.33 1007.82 1008.30 1008.77 1009.24 1009.72 1010.22 1010.75 1011.33 1011.94 1012.59 1013.27 1013.97 1014.67 1015.38 1016.08 1016.76 1017.43 1018.08 1018.71 1019.31 1019.86 1020.36 1020.81
1008.17 1007.91 1007.65 1007.37 1007.04 1006.66 1006.24 1005.79 1005.34 1004.92 1004.57 1004.32 1004.20 1004.21 1004.36 1004.65 1005.04 1005.52 1006.04 1006.59 1007.13 1007.66 1008.16 1008.64 1009.11 1009.59 1010.08 1010.60 1011.16 1011.76 1012.41 1013.09 1013.79 1014.51 1015.25 1015.98 1016.71 1017.43 1018.14 1018.82 1019.46 1020.05 1020.59 1021.05
1007.89 1007.50 1007.11 1006.72 1006.31 1005.87 1005.42 1004.95 1004.51 1004.12 1003.82 1003.62 1003.56 1003.65 1003.88 1004.24 1004.71 1005.25 1005.83 1006.43 1007.01 1007.57 1008.10 1008.59 1009.06 1009.52 1009.99 1010.49 1011.03 1011.60 1012.23 1012.89 1013.60 1014.33 1015.09 1015.86 1016.64 1017.41 1018.17 1018.90 1019.59 1020.22 1020.79 1021.27
1007.70 1007.18 1006.69 1006.20 1005.72 1005.23 1004.75 1004.29 1003.87 1003.51 1003.25 1003.11 1003.11 1003.26 1003.55 1003.97 1004.49 1005.08 1005.71 1006.35 1006.97 1007.55 1008.09 1008.58 1009.04 1009.49 1009.94 1010.40 1010.90 1011.44 1012.04 1012.69 1013.38 1014.13 1014.91 1015.71 1016.53 1017.35 1018.16 1018.94 1019.67 1020.33 1020.93 1021.43
1007.58 1006.96 1006.38 1005.82 1005.29 1004.78 1004.29 1003.84 1003.45 1003.13 1002.92 1002.82 1002.87 1003.06 1003.38 1003.84 1004.39 1005.01 1005.66 1006.32 1006.96 1007.55 1008.09 1008.58 1009.03 1009.46 1009.88 1010.31 1010.77 1011.28 1011.85 1012.47 1013.16 1013.90 1014.69 1015.52 1016.37 1017.23 1018.08 1018.89 1019.65 1020.35 1020.97 1021.49
1007.44 1006.77 1006.14 1005.55 1005.00 1004.49 1004.02 1003.60 1003.25 1002.97 1002.79 1002.74 1002.81 1003.02 1003.36 1003.82 1004.37 1004.99 1005.65 1006.31 1006.94 1007.53 1008.08 1008.56 1009.00 1009.41 1009.81 1010.21 1010.65 1011.12 1011.66 1012.26 1012.94 1013.67 1014.47 1015.30 1016.17 1017.05 1017.92 1018.75 1019.54 1020.25 1020.89 1021.43
Thickness
5827 5819 5816 5823 5828 5826 5824 5818 5815 5820 5830 5824 5818 5817 5821 5825 5823 5820 5818 5816 5813 5812 5814 5814 5812 5810 5808 5805 5801 5799 5797 5795 5793 5792 5790 5788 5787 5788 5787 5786 5783 5782 5781 5780
5814 5812 5825 5831 5829 5824 5821 5816 5815 5819 5827 5822 5817 5816 5824 5825 5822 5822 5819 5816 5814 5813 5812 5810 5810 5809 5807 5803 5801 5799 5796 5795 5793 5791 5789 5787 5786 5787 5786 5785 5782 5781 5780 5779
5810 5821 5829 5823 5819 5815 5818 5817 5816 5815 5820 5824 5817 5812 5818 5823 5825 5823 5822 5822 5820 5816 5812 5809 5808 5807 5806 5802 5800 5799 5796 5795 5792 5791 5790 5787 5785 5784 5784 5782 5781 5780 5779 5777
5814 5824 5820 5817 5816 5817 5811 5824 5821 5816 5811 5812 5814 5801 5813 5819 5817 5818 5819 5820 5820 5819 5816 5813 5809 5806 5805 5803 5802 5799 5796 5794 5791 5790 5788 5785 5782 5780 5779 5780 5780 5778 5777 5776
5811 5818 5814 5811 5818 5821 5819 5826 5821 5817 5813 5810 5814 5806 5814 5819 5811 5814 5818 5819 5820 5820 5817 5813 5811 5807 5806 5804 5802 5798 5794 5792 5790 5788 5786 5783 5782 5780 5780 5779 5777 5776 5775 5774
5818 5826 5824 5822 5827 5827 5825 5819 5816 5816 5813 5794 5808 5803 5806 5818 5815 5817 5818 5819 5818 5818 5816 5813 5811 5808 5805 5804 5801 5797 5792 5788 5787 5785 5784 5781 5778 5776 5775 5773 5773 5773 5773 5773
5803 5814 5824 5827 5816 5819 5819 5807 5793 5789 5790 5794 5811 5804 5807 5821 5824 5822 5819 5818 5817 5816 5813 5810 5807 5804 5802 5800 5799 5795 5790 5785 5785 5783 5781 5779 5777 5775 5772 5771 5771 5770 5770 5769
5793 5795 5815 5822 5818 5813 5814 5812 5790 5779 5785 5800 5805 5802 5815 5825 5826 5826 5823 5820 5816 5814 5811 5808 5805 5803 5800 5798 5795 5792 5788 5784 5783 5780 5778 5777 5775 5775 5774 5771 5771 5769 5768 5767
5799 5798 5819 5824 5827 5822 5810 5811 5821 5805 5799 5794 5803 5807 5816 5822 5819 5819 5818 5815 5812 5811 5809 5807 5804 5802 5798 5795 5793 5790 5786 5783 5781 5779 5776 5774 5772 5771 5770 5767 5767 5766 5764 5764
5809 5795 5810 5819 5821 5819 5822 5820 5809 5800 5779 5778 5792 5799 5807 5809 5811 5813 5812 5810 5809 5808 5807 5804 5802 5799 5797 5794 5791 5788 5785 5780 5778 5777 5774 5773 5770 5768 5766 5764 5762 5761 5759 5758
5811 5795 5800 5807 5803 5807 5807 5807 5805 5803 5799 5783 5781 5798 5822 5816 5815 5812 5811 5810 5807 5805 5804 5801 5798 5796 5793 5791 5788 5783 5780 5777 5775 5773 5770 5768 5766 5764 5762 5760 5758 5756 5754 5753
5805 5801 5793 5802 5815 5820 5816 5812 5806 5790 5785 5791 5790 5798 5823 5820 5819 5815 5810 5807 5805 5803 5801 5798 5794 5790 5788 5785 5783 5780 5777 5774 5771 5769 5766 5763 5761 5759 5757 5756 5753 5752 5749 5748
5798 5792 5777 5783 5794 5804 5804 5807 5811 5810 5801 5791 5786 5795 5816 5816 5813 5812 5807 5803 5799 5797 5795 5792 5789 5785 5782 5780 5777 5775 5773 5770 5768 5765 5762 5759 5756 5754 5752 5750 5749 5747 5745 5743
5797 5790 5784 5780 5792 5802 5796 5799 5803 5802 5791 5790 5792 5798 5805 5805 5804 5803 5801 5798 5795 5791 5789 5787 5783 5780 5777 5775 5772 5769 5768 5766 5764 5760 5757 5754 5752 5749 5747 5745 5743 5741 5739 5738
5790 5782 5787 5793 5799 5799 5797 5796 5797 5794 5796 5792 5795 5796 5801 5803 5802 5798 5796 5793 5789 5785 5783 5780 5777 5774 5771 5768 5766 5764 5762 5760 5758 5754 5751 5748 5747 5744 5742 5739 5737 5735 5733 5733
5781 5775 5778 5778 5788 5790 5787 5792 5794 5792 5795 5795 5794 5793 5805 5803 5799 5792 5789 5787 5782 5780 5778 5776 5772 5769 5765 5763 5761 5758 5756 5754 5751 5748 5745 5743 5741 5738 5736 5733 5731 5729 5727 5725
5771 5766 5763 5768 5780 5777 5770 5786 5789 5790 5795 5793 5787 5792 5797 5789 5786 5785 5783 5782 5779 5776 5774 5770 5767 5764 5761 5759 5757 5753 5751 5749 5745 5742 5739 5737 5734 5731 5729 5727 5724 5722 5720 5718
5759 5757 5761 5763 5759 5743 5777 5793 5791 5787 5789 5793 5791 5791 5789 5786 5784 5784 5782 5778 5774 5772 5769 5766 5764 5761 5759 5756 5753 5750 5747 5743 5739 5735 5732 5730 5728 5725 5723 5720 5718 5716 5714 5712
5758 5750 5751 5753 5750 5757 5771 5780 5780 5775 5775 5784 5783 5782 5782 5781 5779 5776 5776 5774 5770 5768 5765 5762 5760 5758 5755 5752 5748 5744 5740 5736 5732 5728 5726 5724 5721 5719 5716 5714 5712 5710 5707 5706
5749 5748 5745 5744 5737 5741 5763 5776 5781 5772 5762 5776 5777 5773 5773 5771 5765 5767 5769 5767 5764 5762 5760 5757 5755 5752 5747 5744 5742 5737 5733 5729 5725 5722 5719 5717 5715 5712 5710 5708 5706 5704 5702 5700
5733 5733 5735 5736 5736 5751 5761 5768 5768 5748 5753 5767 5770 5768 5766 5763 5764 5764 5763 5759 5757 5755 5753 5751 5748 5744 5740 5737 5734 5729 5726 5722 5720 5717 5713 5711 5708 5706 5704 5702 5699 5697 5695 5693
5731 5731 5729 5732 5729 5737 5753 5757 5750 5748 5757 5760 5760 5761 5759 5756 5756 5755 5752 5749 5748 5746 5745 5743 5739 5736 5733 5730 5726 5722 5718 5716 5713 5710 5706 5703 5701 5700 5699 5695 5692 5690 5688 5685
5728 5731 5735 5732 5733 5739 5747 5746 5747 5750 5748 5750 5752 5753 5751 5747 5745 5744 5742 5741 5739 5737 5736 5735 5731 5727 5725 5723 5719 5714 5711 5708 5705 5701 5698 5696 5694 5692 5691 5688 5686 5684 5681 5680
5719 5721 5722 5721 5727 5732 5735 5738 5741 5743 5742 5744 5744 5743 5742 5738 5736 5734 5733 5731 5729 5728 5727 5726 5723 5719 5716 5714 5711 5707 5704 5700 5697 5693 5690 5689 5686 5685 5683 5681 5680 5678 5675 5673
5710 5711 5712 5710 5716 5720 5724 5728 5730 5732 5734 5734 5735 5735 5733 5730 5727 5725 5723 5721 5720 5719 5718 5717 5715 5711 5708 5706 5703 5700 5696 5692 5688 5685 5682 5681 5679 5678 5675 5674 5672 5669 5667 5665
5705 5705 5704 5706 5711 5712 5713 5719 5722 5721 5721 5722 5722 5722 5723 5722 5719 5717 5714 5712 5711 5710 5708 5707 5705 5702 5699 5697 5694 5690 5687 5684 5679 5676 5674 5673 5672 5670 5668 5666 5663 5659 5657 5654